Moline, IL

2:47 AM CDT on August 31, 2016 (GMT -0500)
Quad-City International

Weather History for KMLI - January, 2011

Change the Weather History Date:

Thursday, January 13, 2011

  Actual Average Record
Temperature  
Mean Temperature 10 °F 22 °F  
Max Temperature 18 °F 31 °F 58 °F (1961)
Min Temperature 1 °F 14 °F -22 °F (1916)
Degree Days  
Heating Degree Days 55 43  
Month to date heating degree days 571 548  
Since 1 July heating degree days 2929 2969  
Cooling Degree Days 0 0  
Month to date cooling degree days 0 0  
Year to date cooling degree days 0 0  
Moisture  
Dew Point 4 °F    
Average Humidity 80    
Maximum Humidity 87    
Minimum Humidity 73    
Precipitation  
Precipitation 0.00 in 0.05 in 1.47 in (1979)
Month to date precipitation 0.20 0.66  
Year to date precipitation 0.20 0.66  
Snow  
Snow 0.00 in 0.30 in - ()
Month to date snowfall 3.7 4.0  
Since 1 July snowfall 21.0 14.5  
Snow Depth 2.00 in    
Sea Level Pressure  
Sea Level Pressure 30.48 in    
Wind  
Wind Speed 5 mph (SW)    
Max Wind Speed 12 mph    
Max Gust Speed 14 mph    
Visibility 9 miles    
Events      
T = Trace of Precipitation, MM = Missing Value Source: NWS Daily Summary

Daily Weather History Graph

Daily Weather History Graph

Search for Another Location

Airport or City:

Trip Planner

Search our weather history database for the weather conditions in past years. The results will help you decide how hot, cold, wet, or windy it might be!

Date:

Astronomy

Jan. 13, 2011 Rise Set
Actual Time 7:26 AM CST 4:54 PM CST
Civil Twilight 6:56 AM CST 5:25 PM CST
Nautical Twilight 6:21 AM CST 5:59 PM CST
Astronomical Twilight 5:48 AM CST 6:33 PM CST
Moon 11:37 AM CST (1/13) 1:24 AM CST (1/13)
Length of Visible Light 10h 29m
Length of Day
9h 27m
Waxing Gibbous, 62% of the Moon is Illuminated
Jan 13
Waxing Gibbous
Jan 19
Full
Jan 26
Last Quarter
Feb 2
New
Feb 11
First Quarter

Hourly Weather History & Observations

Time (CST) Temp. Windchill Dew Point Humidity Pressure Visibility Wind Dir Wind Speed Gust Speed Precip Events Conditions
12:52 AM 9.0 °F -4.2 °F 3.9 °F 80% 30.57 in 10.0 mi West 9.2 mph - N/A   Overcast
1:52 AM 7.0 °F -5.7 °F 1.9 °F 80% 30.57 in 10.0 mi West 8.1 mph - N/A   Mostly Cloudy
2:52 AM 3.9 °F -6.9 °F -0.0 °F 84% 30.59 in 9.0 mi West 5.8 mph - N/A   Clear
3:52 AM 3.0 °F -8.0 °F -0.0 °F 87% 30.58 in 9.0 mi West 5.8 mph - N/A   Clear
4:30 AM 1.4 °F -8.3 °F -0.4 °F 92% 30.54 in 7.0 mi WSW 4.6 mph - N/A   Scattered Clouds
4:37 AM 1.4 °F -9.9 °F -2.2 °F 85% 30.54 in 6.0 mi West 5.8 mph - N/A   Mostly Cloudy
4:52 AM 1.9 °F -5.6 °F -2.0 °F 83% 30.58 in 6.0 mi WSW 3.5 mph - N/A   Overcast
5:21 AM 1.4 °F -6.2 °F -2.2 °F 85% 30.54 in 10.0 mi SW 3.5 mph - N/A   Clear
5:52 AM 1.0 °F -8.7 °F -2.9 °F 83% 30.58 in 8.0 mi SW 4.6 mph - N/A   Clear
6:52 AM 1.9 °F -7.6 °F -2.0 °F 83% 30.58 in 4.0 mi WSW 4.6 mph - N/A   Clear
7:52 AM 1.9 °F -9.2 °F -2.0 °F 83% 30.58 in 5.0 mi WSW 5.8 mph - N/A   Clear
8:52 AM 3.0 °F -6.4 °F -0.9 °F 84% 30.57 in 7.0 mi SW 4.6 mph - N/A   Clear
9:52 AM 6.1 °F -4.3 °F 1.0 °F 80% 30.57 in 7.0 mi WSW 5.8 mph - N/A   Clear
10:52 AM 10.0 °F -1.9 °F 3.9 °F 76% 30.56 in 8.0 mi WSW 8.1 mph - N/A   Clear
11:52 AM 12.0 °F 5.9 °F 6.1 °F 77% 30.49 in 8.0 mi SSW 3.5 mph - N/A   Clear
12:52 PM 12.9 °F 2.6 °F 7.0 °F 77% 30.46 in 10.0 mi SSW 6.9 mph - N/A   Partly Cloudy
1:52 PM 14.0 °F 5.1 °F 8.1 °F 77% 30.44 in 10.0 mi SSW 5.8 mph - N/A   Partly Cloudy
2:52 PM 15.1 °F 6.4 °F 8.1 °F 74% 30.43 in 9.0 mi South 5.8 mph - N/A   Clear
3:52 PM 17.1 °F 8.7 °F 10.0 °F 74% 30.40 in 10.0 mi SSE 5.8 mph - N/A   Partly Cloudy
4:52 PM 17.1 °F 8.7 °F 10.0 °F 74% 30.38 in 10.0 mi SSE 5.8 mph - N/A   Overcast
5:52 PM 17.1 °F 5.0 °F 10.9 °F 77% 30.37 in 10.0 mi SSE 10.4 mph - N/A   Overcast
6:52 PM 17.1 °F 7.6 °F 10.9 °F 77% 30.35 in 10.0 mi SSE 6.9 mph - N/A   Overcast
7:52 PM 18.0 °F 12.7 °F 10.9 °F 74% 30.35 in 10.0 mi South 3.5 mph - N/A   Mostly Cloudy
8:52 PM 18.0 °F 9.8 °F 10.9 °F 74% 30.33 in 10.0 mi SSW 5.8 mph - N/A   Overcast
9:52 PM 15.1 °F 9.4 °F 8.1 °F 74% 30.32 in 10.0 mi SE 3.5 mph - N/A   Clear
10:52 PM 14.0 °F - 8.1 °F 77% 30.32 in 10.0 mi Calm Calm - N/A   Clear
11:52 PM 12.9 °F - 8.1 °F 81% 30.30 in 10.0 mi Calm Calm - N/A   Clear